星链-3996 (STARLINK-3996 )

导读 | 豆包AI

STARLINK-3996是美国太空探索技术公司星链星座的一员,于2022年5月14日发射入轨。星链星座计划构建全球卫星互联网,为偏远地区、海上等场景提供宽带网络服务,这颗卫星补充了星链低轨星座的组网规模,延续了星链系统的部署进程。

基本信息
目录编号:
52617
目录名称:
STARLINK-3996
国际标识:
2022-052V
轨道中心:
EARTH
卫星名称:
星链-3996
卫星全名:
星链-3996 (STARLINK-3996 )
卫星状态:
在轨 (已飞行1447 天)
发射日期:
2022-05-14 UTC
国别 :
美国 (US)
星等 :
--
轨道信息
数据来源 国际轨道数据
星历时间: 2026-04-30T19:29:07+0800
10小时前
查看轨道信息
半长轴: 6917.9km
偏心率: 0.0001404
轨道倾角: 53.220°
近地点辐角 90.109°
升交点赤经 36.632°
平近点角 270.007°
近地点: 538.791km
远地点: 540.735km
周期: 95.438分钟
每日圈数: 15.088339
详细信息
固有亮度:
5
最大亮度:
2.5
卫星平台:
Starlink v1.5
覆盖范围:
全球
运营商:
太空探索技术公司
运营商所在国:
美国
制造商(研发单位):
太空探索技术公司
制造商所在国:
美国
使用方式:
暂无
卫星简介
星链(Starlink)计划是由太空探索技术公司(SpaceX)提出的一个巨型低轨卫星互联网星座项目,计划在2019年至2024年间在太空搭建由约1.2万颗卫星组成的“星链”网络,其中1584颗将部署在地球上空550千米处的近地轨道,并从2020年开始工作。该卫星仍在工作。
2D轨道图
3D轨道图
轨道高度分析图
轨道倾角分析图
轨道综合分析图
查看轨道综合分析图